Theta_e
363 364 364 362 361 361 360 362 364 364 362 360 359 360 360 359 357 357 359 360 362 363 362 362 362 363 362 361 360 360 358 357 356 354 352 351 351 349 345 344 345 346
363 363 364 363 362 363 361 361 362 363 362 360 357 357 359 359 358 359 359 360 362 362 363 363 363 364 363 360 359 361 360 359 357 354 352 350 351 350 345 344 345 346
364 363 364 363 363 364 363 361 361 362 363 362 359 357 357 359 360 360 360 360 361 362 362 362 362 364 363 360 359 361 361 360 358 354 352 351 352 351 346 343 345 346
365 364 364 363 362 364 364 362 362 363 362 362 361 359 357 357 359 361 362 361 362 362 362 362 362 362 363 361 359 360 360 360 359 355 353 352 352 352 348 343 344 346
365 365 364 363 362 363 365 364 362 363 362 361 362 361 359 358 359 362 364 363 363 364 362 362 362 361 362 362 360 361 361 361 360 357 355 353 352 352 349 345 344 346
365 365 364 363 363 363 365 365 363 363 363 361 361 362 361 360 360 361 363 364 364 363 361 361 362 362 362 362 361 361 361 361 360 359 356 354 353 352 351 347 345 346
365 365 364 363 364 364 365 366 365 364 363 362 361 361 362 362 362 362 363 364 365 363 360 359 361 362 361 362 362 362 361 360 359 359 357 355 354 353 352 349 346 346
365 366 366 364 364 365 365 365 366 365 364 363 362 362 363 363 363 364 363 364 365 364 362 359 360 363 362 362 364 363 361 360 359 358 357 356 355 354 353 351 348 347
365 365 366 365 364 365 365 364 366 366 365 364 363 362 363 363 363 364 364 364 364 364 363 361 361 364 364 363 364 364 362 360 360 360 359 358 356 356 355 353 350 348
366 365 365 365 363 363 363 363 363 365 365 365 363 360 362 364 364 364 365 365 364 363 364 363 362 364 365 364 364 364 363 362 361 362 361 359 357 356 356 356 352 350
366 365 365 364 363 361 361 361 361 362 364 364 363 359 358 362 364 365 365 366 366 364 363 364 364 364 365 365 364 364 364 363 363 363 363 361 359 357 357 357 355 352
366 366 364 364 364 361 359 360 360 359 362 364 364 361 357 359 363 365 366 367 367 366 364 365 365 365 365 365 364 364 365 364 363 363 364 362 361 359 358 358 356 354
366 367 365 364 363 363 360 359 359 358 359 362 363 362 360 358 360 364 366 367 368 367 366 366 366 366 366 366 365 364 365 365 364 363 364 364 362 361 359 358 357 356
367 367 367 365 365 365 362 358 358 357 357 359 362 363 363 358 357 362 366 367 368 368 367 367 367 366 367 368 367 364 364 365 364 362 363 364 363 362 360 358 357 356
368 368 368 367 366 366 364 359 357 358 357 358 361 363 363 361 357 359 364 367 368 368 368 368 367 367 367 367 367 366 364 363 364 363 361 362 364 363 360 359 358 357
369 368 369 368 367 367 367 362 359 359 359 359 360 362 363 363 360 358 361 366 367 369 369 368 368 367 366 364 365 366 365 363 363 363 362 361 363 363 362 360 358 357
370 369 370 369 368 367 367 366 362 361 361 361 361 362 363 364 363 361 361 363 367 368 369 369 368 367 364 363 362 363 364 364 363 363 363 361 361 362 362 361 359 358
370 371 371 370 369 369 368 368 366 362 362 363 363 363 364 365 365 364 362 362 365 368 368 369 368 366 363 362 361 359 360 363 363 363 363 362 361 361 362 362 360 359
372 372 372 371 371 370 369 370 368 365 365 365 365 365 366 366 366 366 365 364 364 367 367 367 368 367 364 361 360 359 358 359 362 363 363 362 362 360 361 362 361 360
372 373 373 372 372 371 370 370 370 368 367 366 366 367 366 367 368 367 367 366 364 365 367 367 367 367 366 362 360 359 357 357 359 362 363 362 362 361 361 361 362 361
374 373 373 373 373 372 371 371 370 370 368 366 366 367 367 368 368 368 367 367 366 366 366 367 366 366 367 365 361 359 358 357 358 361 363 363 362 362 362 361 362 362
374 374 374 374 373 373 372 371 371 371 369 367 366 367 367 368 368 368 367 367 367 366 365 366 366 365 365 365 363 361 359 358 358 360 361 362 363 363 363 363 362 362
373 372 373 374 373 373 372 371 371 372 370 369 366 366 367 368 368 368 367 367 367 367 367 366 365 365 364 364 364 363 360 359 359 360 361 362 362 363 364 364 363 362
373 372 372 374 374 373 372 371 371 371 371 369 367 366 366 366 367 368 367 367 366 366 367 367 366 365 364 364 363 363 362 360 358 360 361 361 362 363 364 365 364 362
371 372 372 373 373 373 372 371 370 370 370 369 368 367 365 364 366 366 367 368 367 366 366 366 366 366 365 365 363 362 362 360 359 360 362 361 362 362 362 364 364 363
371 371 372 372 373 373 372 371 370 369 369 369 368 368 366 365 365 364 366 367 367 367 367 365 366 366 366 365 364 362 361 360 359 361 362 361 362 362 362 363 363 362
Wind_Speed
26 25 25 25 24 23 23 23 22 22 21 21 20 20 20 20 20 19 20 20 20 19 19 18 18 17 16 15 13 12 12 12 12 11 12 13 13 13 14 15 14 13
28 26 25 24 24 24 24 24 23 22 22 22 21 20 19 20 21 21 20 20 20 20 19 19 19 18 18 16 15 14 13 13 13 12 13 14 14 14 14 15 16 14
29 28 27 26 25 25 25 24 24 23 22 22 22 21 20 20 20 21 22 21 21 21 20 20 20 20 19 18 17 17 15 15 15 14 14 15 15 15 15 15 16 16
31 30 29 27 26 25 24 24 24 25 24 23 23 23 21 20 20 21 23 23 22 21 21 21 21 21 20 19 19 18 17 17 17 15 15 16 16 16 15 15 16 16
33 32 30 29 27 26 25 25 26 26 25 24 23 22 23 22 21 21 22 23 23 22 22 22 22 21 21 20 20 19 18 18 18 18 17 17 17 17 16 16 16 16
34 33 31 30 28 27 26 26 27 27 26 26 24 23 23 24 23 23 23 24 24 24 23 23 23 22 22 22 21 20 19 19 19 19 19 19 18 18 17 17 17 17
34 34 33 32 30 29 28 27 27 27 27 26 25 24 24 24 25 25 24 24 24 24 24 23 23 23 23 22 22 22 21 20 20 21 21 20 20 19 18 18 18 19
35 35 34 33 31 30 30 29 28 28 27 26 25 25 25 25 26 25 25 25 24 24 24 24 24 24 23 23 23 23 23 21 21 22 22 22 21 21 21 19 19 20
35 34 33 34 33 32 31 30 29 28 28 27 26 26 26 26 26 26 26 26 25 24 24 24 24 24 24 23 24 24 24 23 22 23 24 24 23 22 22 21 20 21
34 34 34 34 35 33 33 33 31 29 29 29 29 27 27 27 27 26 26 26 26 25 24 24 24 25 24 24 24 24 25 24 23 24 24 25 24 24 23 23 22 22
36 35 35 36 36 35 35 35 33 31 30 31 31 30 28 27 27 27 26 26 26 26 25 25 25 25 25 25 24 24 25 25 24 25 25 25 25 25 24 24 24 24
36 36 36 37 37 36 36 35 34 33 32 31 31 31 30 29 27 27 27 27 27 26 26 26 26 26 26 26 25 24 25 25 24 25 25 25 26 25 25 25 25 25
36 36 36 36 37 36 35 34 34 34 32 31 30 30 31 30 29 28 27 27 27 27 27 27 27 27 27 28 27 26 25 25 25 25 25 25 26 26 26 26 26 26
35 35 34 35 35 35 34 33 33 34 33 31 30 30 30 31 30 29 28 28 29 29 29 28 29 29 29 29 29 28 27 26 26 26 26 25 26 26 27 27 27 27
33 32 32 33 33 33 33 33 33 33 33 32 30 29 29 30 31 31 29 29 29 29 29 30 30 30 30 31 30 30 29 28 27 27 27 26 25 26 27 27 27 27
32 31 31 32 32 32 33 33 33 31 31 32 32 30 29 29 30 31 30 30 29 30 30 30 30 31 33 35 34 32 30 28 27 27 27 27 26 26 26 27 27 27
31 31 31 32 32 32 32 32 33 32 31 32 32 31 30 29 29 30 31 30 29 30 30 30 31 32 35 38 38 36 32 28 27 27 27 27 27 26 26 26 27 28
30 30 30 30 31 31 31 31 32 32 31 31 32 32 30 29 29 30 31 30 29 30 31 31 31 34 37 40 41 41 38 32 27 27 27 27 28 28 27 27 27 28
29 29 30 30 30 30 30 29 30 31 31 31 31 31 30 29 29 29 30 30 30 30 31 31 31 33 38 41 42 43 44 39 31 27 28 29 29 30 29 28 28 28
29 30 30 29 29 28 28 29 30 31 31 30 29 30 30 30 30 29 30 31 32 31 31 31 31 32 37 42 44 44 46 45 39 30 28 30 30 31 31 30 30 29
29 30 29 28 27 28 29 30 30 31 31 30 29 29 30 30 30 30 30 31 32 31 30 30 31 33 36 40 44 45 45 47 44 36 30 30 31 31 31 31 31 31
29 28 27 27 28 28 30 30 30 30 30 30 28 27 28 28 29 30 30 30 31 32 32 32 32 33 36 38 42 44 44 47 47 39 32 31 30 30 31 31 32 32
29 28 27 27 28 29 30 30 29 28 27 28 28 27 27 28 28 29 29 30 31 32 33 34 32 33 36 38 40 43 44 47 48 40 33 32 30 29 30 31 32 34
28 28 28 28 29 30 30 29 28 27 27 28 29 29 29 28 27 27 28 30 32 33 34 33 32 32 36 38 40 42 44 47 48 39 32 31 31 29 30 30 33 36
27 28 28 28 29 29 28 28 27 26 26 27 28 28 28 27 26 26 27 28 29 31 33 33 31 31 34 37 40 42 44 47 46 38 31 31 30 29 31 32 33 36
27 28 28 28 27 27 26 25 25 25 25 26 26 26 25 26 26 26 26 26 27 28 30 32 32 31 33 36 39 42 45 48 44 36 32 32 30 30 31 31 32 35
Wind_Direction
202 202 202 203 205 207 207 205 205 205 206 207 209 211 211 211 212 209 207 207 207 207 206 203 203 202 202 203 204 208 207 203 204 202 204 209 209 211 210 206 209 213
200 202 201 202 204 207 209 208 207 207 208 209 211 213 213 212 210 209 207 207 206 207 206 204 203 201 200 201 202 204 205 203 204 206 207 212 213 212 213 210 208 213
199 200 200 201 203 205 208 209 209 209 209 210 211 212 213 212 210 208 206 206 206 206 206 205 204 203 202 201 200 203 205 202 202 206 208 210 213 214 214 214 211 210
197 199 200 201 203 205 205 208 209 209 209 210 211 211 212 213 211 208 206 206 206 205 204 205 205 205 205 202 200 202 204 202 202 205 207 210 212 215 215 214 215 212
197 198 200 201 203 203 203 206 209 209 209 210 210 209 210 211 210 209 207 205 205 205 204 204 204 204 203 201 200 201 203 202 203 203 205 210 210 212 216 214 215 215
196 197 199 200 202 202 203 206 209 209 209 209 209 208 208 209 209 209 209 207 206 205 205 204 203 202 202 200 199 201 202 202 202 201 203 210 210 209 213 213 213 216
195 197 198 199 200 201 203 206 208 208 209 209 208 208 208 208 209 209 209 208 208 207 206 205 203 202 202 200 199 200 202 205 204 202 204 208 209 209 210 211 211 214
195 197 197 198 199 200 202 205 207 207 208 207 206 207 207 207 208 209 209 208 208 208 207 206 203 202 202 201 201 200 201 205 205 204 204 206 208 209 210 210 209 210
195 196 196 197 199 201 203 205 206 206 206 206 205 206 207 208 208 208 207 207 208 208 207 206 204 201 202 203 203 202 202 203 205 204 203 204 206 208 208 209 209 208
195 196 197 199 201 202 204 206 206 206 206 205 206 208 209 209 209 208 207 205 207 208 206 205 204 202 203 206 206 205 204 204 204 203 203 204 205 207 208 208 208 207
195 196 198 200 202 204 206 206 207 207 207 206 207 210 211 210 208 207 207 205 205 206 205 204 204 203 203 206 208 208 207 206 205 204 204 205 205 206 207 208 209 209
196 197 199 201 203 205 206 207 208 208 208 207 207 209 211 211 209 206 206 205 204 204 205 204 204 204 204 205 208 210 210 209 208 206 206 205 205 207 208 209 210 210
196 197 199 201 203 205 206 207 208 209 210 209 208 208 209 210 210 207 205 204 203 203 204 203 203 204 205 205 207 209 211 211 210 209 207 207 206 208 210 211 212 212
197 197 198 201 203 204 205 207 208 210 210 209 208 208 209 210 211 208 205 204 203 203 203 202 203 205 205 205 207 209 210 211 212 211 209 209 209 210 211 213 214 214
195 195 197 200 202 202 204 206 207 209 209 209 209 209 209 210 211 209 206 204 203 203 202 202 204 206 206 206 207 208 209 211 213 213 213 211 211 211 213 215 216 216
192 194 196 198 200 201 202 204 206 207 208 209 210 210 210 210 210 210 208 205 203 202 202 203 205 207 209 211 211 209 208 210 212 213 214 214 213 214 215 216 218 219
190 193 194 196 199 200 200 202 204 205 206 208 210 210 210 210 210 211 211 208 206 204 204 205 207 211 213 214 214 213 211 209 211 213 213 215 215 215 216 217 219 221
190 191 193 194 197 198 198 199 201 203 205 206 207 209 210 210 210 211 212 211 209 208 208 209 210 213 216 216 216 217 215 212 211 212 213 215 217 217 217 218 218 219
189 189 192 193 195 195 195 196 198 202 204 204 205 206 206 208 210 209 211 212 212 212 213 213 214 214 216 217 218 218 218 215 213 213 214 214 216 217 217 216 216 217
189 189 192 193 192 192 192 194 197 200 203 203 203 204 205 207 208 209 210 212 213 215 216 217 218 217 216 218 219 219 219 218 215 214 216 216 216 217 216 216 215 214
190 190 191 190 189 190 191 195 198 200 201 202 203 204 205 207 207 209 211 212 213 216 218 220 221 221 219 218 219 220 220 219 216 215 217 219 218 217 216 216 215 214
191 190 189 189 189 190 194 197 199 201 200 201 204 207 207 208 210 212 213 214 214 216 219 223 224 224 222 220 220 220 220 218 217 216 218 221 220 218 216 216 215 213
193 192 191 190 190 192 197 200 200 201 199 199 204 207 209 210 212 214 215 215 216 217 219 223 225 225 224 223 220 219 218 217 215 215 218 222 222 221 218 216 216 215
194 195 193 192 193 195 199 200 200 201 201 201 204 208 211 213 213 215 217 218 219 220 221 224 226 227 226 225 222 219 216 215 215 214 217 222 223 223 222 219 219 218
195 197 196 196 197 198 200 200 200 201 202 202 206 210 213 215 215 217 220 220 222 224 224 226 228 229 229 227 224 220 217 215 213 211 214 219 220 222 223 223 223 221
196 198 198 199 200 199 200 200 200 202 203 204 207 210 213 216 218 220 223 224 225 227 227 227 228 229 231 229 225 222 219 215 211 209 213 216 216 220 223 224 224 224